K5NCO Weather Reports


time (UTC)temp
F
wind
direction
speed
knots
gust
knots
rain 1hr
in
rain 24hr
in
rain mn
in
humidity
%
barometer
mb
20260906190211 90 67 4.3 5.2 0.00 0.00 0.00 54 1015.1
20260906185710 92 50 3.5 5.2 0.00 0.00 0.00 54 1015.2
20260906185209 92 27 1.7 1.7 0.00 0.00 0.00 51 1015.4
20260906184704 91 246 0.9 0.9 0.00 0.00 0.00 51 1015.4
20260906184159 89 144 0.0 0.9 0.00 0.00 0.00 55 1015.3
20260906183655 88 298 0.0 0.9 0.00 0.00 0.00 61 1015.6
20260906183151 89 10 0.0 0.0 0.00 0.00 0.00 63 1015.6
20260906182650 88 334 1.7 1.7 0.00 0.00 0.00 63 1015.6
20260906182147 88 32 0.9 1.7 0.00 0.00 0.00 66 1015.5
20260906181642 87 82 1.7 1.7 0.00 0.00 0.00 66 1015.7
20260906181138 88 19 2.6 3.5 0.00 0.00 0.00 65 1015.8
20260906180633 88 91 1.7 2.6 0.00 0.00 0.00 67 1015.9
20260906180132 87 117 0.9 0.9 0.00 0.00 0.00 67 1015.8
20260906175631 87 33 0.9 1.7 0.00 0.00 0.00 70 1016.2
20260906175126 87 303 1.7 1.7 0.00 0.00 0.00 68 1016.3
20260906174624 86 322 0.9 0.9 0.00 0.00 0.00 70 1016.3
20260906174119 86 173 0.9 1.7 0.00 0.00 0.00 73 1016.5
20260906173615 86 187 1.7 1.7 0.00 0.00 0.00 72 1016.5
20260906173110 86 195 0.9 0.9 0.00 0.00 0.00 71 1016.5
20260906172604 85 194 0.9 1.7 0.00 0.00 0.00 73 1016.7
20260906172100 85 104 2.6 3.5 0.00 0.00 0.00 74 1016.9
20260906171559 85 131 1.7 2.6 0.00 0.00 0.00 73 1016.9
20260906171055 85 214 0.9 0.9 0.00 0.00 0.00 72 1017.0
20260906170551 84 189 1.7 1.7 0.00 0.00 0.00 71 1017.0
20260906170049 84 130 1.7 2.6 0.00 0.00 0.00 73 1017.1
20260906165546 84 137 2.6 2.6 0.00 0.00 0.00 73 1017.2
20260906165041 84 151 0.9 1.7 0.00 0.00 0.00 75 1017.2
20260906164540 84 128 1.7 1.7 0.00 0.00 0.00 72 1017.2
20260906164036 83 122 3.5 3.5 0.00 0.00 0.00 77 1017.2
20260906163531 83 199 3.5 3.5 0.00 0.00 0.00 78 1017.4
20260906163027 83 191 4.3 6.1 0.00 0.00 0.00 79 1017.3
20260906162524 83 166 3.5 3.5 0.00 0.00 0.00 79 1017.3
20260906162019 83 209 2.6 2.6 0.00 0.00 0.00 80 1017.2
20260906161515 83 166 3.5 3.5 0.00 0.00 0.00 80 1017.4
20260906161013 83 230 3.5 5.2 0.00 0.00 0.00 80 1017.1
20260906160507 83 126 3.5 5.2 0.00 0.00 0.00 80 1017.1
20260906160006 83 169 2.6 2.6 0.00 0.00 0.00 79 1017.1
20260906155504 83 126 1.7 2.6 0.00 0.00 0.00 79 1017.0
20260906155000 83 229 3.5 3.5 0.00 0.00 0.00 80 1016.8
20260906154455 83 193 1.7 1.7 0.00 0.00 0.00 81 1017.0
20260906153953 83 109 0.9 0.9 0.00 0.00 0.00 81 1016.9
20260906153452 83 113 2.6 2.6 0.00 0.00 0.00 80 1016.8
20260906152947 82 146 1.7 2.6 0.00 0.00 0.00 81 1016.7
20260906152447 82 110 1.7 1.7 0.00 0.00 0.00 83 1016.8
20260906151941 82 128 1.7 1.7 0.00 0.00 0.00 84 1016.7
20260906151437 81 199 0.0 0.0 0.00 0.00 0.00 85 1016.6
20260906150932 81 175 0.9 0.9 0.00 0.00 0.00 85 1016.6
20260906150426 81 121 1.7 1.7 0.00 0.00 0.00 87 1016.6
20260906145921 81 155 1.7 1.7 0.00 0.00 0.00 87 1016.4
20260906145420 81 157 0.9 1.7 0.00 0.00 0.00 88 1016.7
20260906144915 80 117 0.9 1.7 0.00 0.00 0.00 88 1016.5
20260906144409 80 112 0.9 1.7 0.00 0.00 0.00 88 1016.4
20260906143904 80 134 3.5 5.2 0.00 0.00 0.00 87 1016.6
20260906143400 80 108 0.0 0.9 0.00 0.00 0.00 88 1016.4
20260906142856 81 87 1.7 2.6 0.00 0.00 0.00 85 1016.5
20260906142344 81 111 0.9 0.9 0.00 0.00 0.00 84 1016.6
20260906141845 81 142 1.7 2.6 0.00 0.00 0.00 84 1016.6
20260906141339 81 108 1.7 2.6 0.00 0.00 0.00 84 1016.5
20260906140838 81 108 1.7 1.7 0.00 0.00 0.00 84 1016.2
20260906140333 81 64 1.7 1.7 0.00 0.00 0.00 84 1016.2
20260906135831 81 99 2.6 2.6 0.00 0.00 0.00 84 1016.1
20260906135326 81 89 1.7 2.6 0.00 0.00 0.00 83 1016.2
20260906134821 81 83 0.9 1.7 0.00 0.00 0.00 84 1016.1
20260906134316 81 103 1.7 2.6 0.00 0.00 0.00 83 1016.2
20260906133812 81 78 0.9 0.9 0.00 0.00 0.00 84 1016.3
20260906133307 81 95 1.7 2.6 0.00 0.00 0.00 83 1016.4
20260906132802 81 164 0.9 0.9 0.00 0.00 0.00 83 1016.1
20260906132257 81 163 1.7 1.7 0.00 0.00 0.00 83 1016.1
20260906131753 81 112 2.6 2.6 0.00 0.00 0.00 82 1015.8
20260906131247 82 89 0.9 1.7 0.00 0.00 0.00 81 1015.7
20260906130743 83 99 1.7 1.7 0.00 0.00 0.00 79 1015.8
20260906130238 82 185 0.0 0.0 0.00 0.00 0.00 78 1015.8
20260906125737 82 159 0.0 0.0 0.00 0.00 0.00 79 1015.9
20260906125235 81 162 0.0 0.0 0.00 0.00 0.00 81 1015.6
20260906124730 81 150 0.9 0.9 0.00 0.00 0.00 82 1015.6
20260906124226 81 146 0.9 0.9 0.00 0.00 0.00 81 1015.4
20260906123724 81 158 0.0 0.0 0.00 0.00 0.00 82 1015.4
20260906123220 80 175 0.0 0.0 0.00 0.00 0.00 82 1015.2
20260906122719 80 175 0.0 0.0 0.00 0.00 0.00 83 1015.0
20260906122215 79 175 0.0 0.0 0.00 0.00 0.00 84 1015.2
20260906121711 79 175 0.0 0.0 0.00 0.00 0.00 84 1015.0
20260906121207 79 182 0.0 0.0 0.00 0.00 0.00 84 1014.8
20260906120703 79 65 0.0 0.0 0.00 0.00 0.00 84 1014.8
20260906120159 79 54 0.0 0.0 0.00 0.00 0.00 84 1014.7
20260906115654 79 54 0.0 0.0 0.00 0.00 0.00 84 1014.8
20260906115150 80 74 0.0 0.0 0.00 0.00 0.00 83 1014.6
20260906114648 80 92 0.0 0.0 0.00 0.00 0.00 83 1014.6
20260906114144 80 60 0.0 0.0 0.00 0.00 0.00 83 1014.3
20260906113643 80 89 0.0 0.0 0.00 0.00 0.00 83 1014.3
20260906113138 80 195 0.0 0.0 0.00 0.00 0.00 83 1014.4
20260906112637 80 195 0.0 0.0 0.00 0.00 0.00 83 1014.2
20260906112135 79 221 0.0 0.0 0.00 0.00 0.00 83 1013.9
20260906111634 80 222 0.0 0.0 0.00 0.00 0.00 83 1014.2
20260906111129 80 222 0.0 0.0 0.00 0.00 0.00 83 1014.1
20260906110623 80 214 0.0 0.0 0.00 0.00 0.00 83 1014.2
20260906110118 80 198 0.0 0.0 0.00 0.00 0.00 82 1014.2
20260906105613 80 213 0.0 0.0 0.00 0.00 0.00 82 1014.4
20260906105109 80 196 0.0 0.9 0.00 0.00 0.00 82 1014.3
20260906104608 80 201 0.9 0.9 0.00 0.00 0.00 81 1014.4
20260906104102 80 221 1.7 2.6 0.00 0.00 0.00 81 1014.2
20260906103601 80 212 0.9 0.9 0.00 0.00 0.00 81 1014.2
20260906103055 80 181 1.7 1.7 0.00 0.00 0.00 81 1014.2
20260906102549 80 199 1.7 2.6 0.00 0.00 0.00 81 1014.2
20260906102044 81 183 0.9 1.7 0.00 0.00 0.00 81 1014.1
20260906101539 81 182 0.9 0.9 0.00 0.00 0.00 80 1014.0
20260906101034 81 179 1.7 2.6 0.00 0.00 0.00 80 1014.0
20260906100529 81 243 0.9 0.9 0.00 0.00 0.00 80 1014.2
20260906100023 81 210 1.7 1.7 0.00 0.00 0.00 80 1013.9
20260906095518 81 243 1.7 1.7 0.00 0.00 0.00 80 1013.9
20260906095014 81 211 0.9 1.7 0.00 0.00 0.00 79 1014.1
20260906094512 81 198 2.6 3.5 0.00 0.00 0.00 79 1014.1
20260906094008 81 206 3.5 3.5 0.00 0.00 0.00 79 1013.9
20260906093504 81 219 1.7 2.6 0.00 0.00 0.00 79 1014.1
20260906092959 81 231 1.7 2.6 0.00 0.00 0.00 79 1014.0
20260906092459 81 233 1.7 1.7 0.00 0.00 0.00 79 1013.8
20260906091954 81 184 1.7 1.7 0.00 0.00 0.00 79 1013.8
20260906091450 81 230 1.7 2.6 0.00 0.00 0.00 79 1013.8
20260906090947 81 193 2.6 3.5 0.00 0.00 0.00 78 1013.8
20260906090441 82 200 3.5 5.2 0.00 0.00 0.00 78 1013.8
20260906085936 82 203 2.6 2.6 0.00 0.00 0.00 78 1013.8
20260906085435 82 220 1.7 1.7 0.00 0.00 0.00 78 1013.9
20260906084934 82 192 3.5 5.2 0.00 0.00 0.00 78 1013.9
20260906084429 82 190 4.3 6.1 0.00 0.00 0.00 77 1013.9
20260906083928 82 148 0.9 1.7 0.00 0.00 0.00 77 1014.0
20260906083424 82 165 3.5 3.5 0.00 0.00 0.00 77 1014.0
20260906082923 82 210 1.7 1.7 0.00 0.00 0.00 77 1013.9
20260906082419 82 171 3.5 3.5 0.00 0.00 0.00 77 1014.0
20260906081914 82 230 3.5 5.2 0.00 0.00 0.00 77 1013.8
20260906081410 83 230 3.5 3.5 0.00 0.00 0.00 76 1014.0
20260906080906 83 227 0.9 0.9 0.00 0.00 0.00 76 1014.0
20260906080402 83 135 2.6 2.6 0.00 0.00 0.00 76 1014.0
20260906075901 83 176 4.3 6.1 0.00 0.00 0.00 76 1014.1
20260906075356 83 205 2.6 2.6 0.00 0.00 0.00 76 1014.2
20260906074852 83 163 5.2 6.1 0.00 0.00 0.00 75 1014.2
20260906074346 83 170 4.3 7.0 0.00 0.00 0.00 75 1014.2
20260906073845 83 201 1.7 1.7 0.00 0.00 0.00 75 1014.3
20260906073340 83 217 5.2 6.1 0.00 0.00 0.00 75 1014.4
20260906072836 84 187 0.9 1.7 0.00 0.00 0.00 74 1014.4
20260906072332 84 207 1.7 1.7 0.00 0.00 0.00 74 1014.5
20260906071827 84 198 5.2 7.0 0.00 0.00 0.00 74 1014.4
20260906071322 84 176 4.3 5.2 0.00 0.00 0.00 74 1014.6
20260906070818 84 185 1.7 2.6 0.00 0.00 0.00 74 1014.5
20260906070314 84 173 3.5 3.5 0.00 0.00 0.00 74 1014.6
20260906065814 84 188 2.6 2.6 0.00 0.00 0.00 73 1014.7
20260906065309 84 192 3.5 5.2 0.00 0.00 0.00 73 1014.7
20260906064805 84 195 5.2 7.8 0.00 0.00 0.00 74 1014.7
20260906064301 84 114 5.2 7.0 0.00 0.00 0.00 74 1014.9
20260906063801 84 201 1.7 2.6 0.00 0.00 0.00 74 1014.7
20260906063256 84 158 5.2 7.0 0.00 0.00 0.00 74 1014.9
20260906062751 84 144 6.1 7.8 0.00 0.00 0.00 74 1014.9
20260906062250 84 145 6.1 7.8 0.00 0.00 0.00 73 1015.1
20260906061747 84 190 1.7 2.6 0.00 0.00 0.00 74 1015.1
20260906061243 84 119 3.5 3.5 0.00 0.00 0.00 74 1015.1
20260906060738 84 176 5.2 6.1 0.00 0.00 0.00 73 1014.9
20260906060235 84 169 4.3 7.0 0.00 0.00 0.00 74 1015.1
20260906055731 84 185 1.7 2.6 0.00 0.00 0.00 74 1015.2
20260906055226 84 154 1.7 2.6 0.00 0.00 0.00 74 1015.3
20260906054721 84 123 0.9 1.7 0.00 0.00 0.00 74 1014.9
20260906054216 84 206 2.6 2.6 0.00 0.00 0.00 74 1015.0
20260906053713 84 120 3.5 3.5 0.00 0.00 0.00 74 1015.0
20260906053208 84 125 4.3 5.2 0.00 0.00 0.00 74 1014.9
20260906052703 84 147 2.6 3.5 0.00 0.00 0.00 74 1015.1
20260906052200 84 144 2.6 2.6 0.00 0.00 0.00 74 1014.9
20260906051656 84 128 1.7 1.7 0.00 0.00 0.00 74 1015.0
20260906051155 84 139 3.5 5.2 0.00 0.00 0.00 74 1015.1
20260906050651 84 120 0.9 2.6 0.00 0.00 0.00 74 1015.3
20260906050146 84 166 2.6 2.6 0.00 0.00 0.00 74 1015.1
20260906045644 84 117 3.5 3.5 0.00 0.00 0.00 73 1015.3
20260906045140 84 137 2.6 2.6 0.00 0.00 0.00 73 1015.1
20260906044636 84 117 5.2 7.0 0.00 0.00 0.00 73 1015.2
20260906044131 84 126 2.6 2.6 0.00 0.00 0.00 73 1015.1
20260906043627 84 101 0.9 1.7 0.00 0.00 0.00 73 1015.2
20260906043122 84 104 5.2 7.0 0.00 0.00 0.00 72 1015.3
20260906042621 84 134 4.3 5.2 0.00 0.00 0.00 72 1015.1
20260906042115 84 79 4.3 6.1 0.00 0.00 0.00 72 1015.1
20260906041612 84 128 5.2 7.0 0.00 0.00 0.00 71 1015.2
20260906041106 84 95 0.9 1.7 0.00 0.00 0.00 71 1015.0
20260906040602 84 153 3.5 3.5 0.00 0.00 0.00 71 1014.9
20260906040057 84 99 3.5 5.2 0.00 0.00 0.00 71 1015.0
20260906035552 84 100 4.3 5.2 0.00 0.00 0.00 70 1014.9
20260906035048 84 138 4.3 5.2 0.00 0.00 0.00 70 1015.0
20260906034548 84 84 3.5 3.5 0.00 0.00 0.00 69 1015.3
20260906034037 85 104 7.0 7.0 0.00 0.00 0.00 69 1015.0
20260906033532 85 71 0.9 0.9 0.00 0.00 0.00 68 1015.0
20260906033027 85 87 7.0 11.3 0.00 0.00 0.00 68 1015.0
20260906032524 85 90 5.2 7.0 0.00 0.00 0.00 67 1015.0
20260906032019 86 84 4.3 7.0 0.00 0.00 0.00 66 1014.9
20260906031515 86 49 4.3 7.0 0.00 0.00 0.00 65 1014.9
20260906031009 86 127 7.8 8.7 0.00 0.00 0.00 65 1014.7
20260906030503 86 98 5.2 7.8 0.00 0.00 0.00 64 1014.7
20260906030003 87 56 1.7 3.5 0.00 0.00 0.00 64 1014.6
20260906025502 87 105 6.1 9.6 0.00 0.00 0.00 64 1014.5
20260906025001 87 53 4.3 7.0 0.00 0.00 0.00 63 1014.6
20260906024456 87 64 2.6 5.2 0.00 0.00 0.00 63 1014.3
20260906023955 87 93 5.2 7.0 0.00 0.00 0.00 62 1014.2
20260906023453 88 37 3.5 6.1 0.00 0.00 0.00 61 1014.0
20260906022953 88 74 6.1 8.7 0.00 0.00 0.00 60 1013.8
20260906022442 88 83 6.1 8.7 0.00 0.00 0.00 60 1013.7
20260906021937 89 100 6.1 8.7 0.00 0.00 0.00 59 1013.7
20260906021432 89 80 1.7 2.6 0.00 0.00 0.00 58 1013.5
20260906020926 89 117 0.9 1.7 0.00 0.00 0.00 58 1013.5
20260906020421 89 99 3.5 3.5 0.00 0.00 0.00 57 1013.2
20260906015915 89 85 5.2 7.8 0.00 0.00 0.00 57 1013.0
20260906015414 90 89 3.5 5.2 0.00 0.00 0.00 56 1013.1
20260906014909 90 76 7.8 11.3 0.00 0.00 0.00 56 1012.9
20260906014408 90 85 6.1 7.0 0.00 0.00 0.00 56 1012.9
20260906013905 90 83 7.0 11.3 0.00 0.00 0.00 56 1013.0
20260906013400 90 59 8.7 9.6 0.00 0.00 0.00 55 1012.8
20260906012855 91 83 4.3 6.1 0.00 0.00 0.00 55 1012.9
20260906012350 91 67 7.0 11.3 0.00 0.00 0.00 55 1012.6
20260906011850 91 98 4.3 6.1 0.00 0.00 0.00 55 1012.8
20260906011345 91 90 10.4 12.2 0.00 0.00 0.00 54 1012.5
20260906010841 91 40 3.5 6.1 0.00 0.00 0.00 54 1012.7
20260906010336 92 115 4.3 5.2 0.00 0.00 0.00 53 1012.6
20260906005832 92 79 1.7 2.6 0.00 0.00 0.00 53 1012.8
20260906005331 92 127 7.0 9.6 0.00 0.00 0.00 52 1012.6
20260906004830 93 50 10.4 13.0 0.00 0.00 0.00 51 1012.7
20260906004330 93 76 4.3 11.3 0.00 0.00 0.00 51 1012.7
20260906003825 93 105 3.5 5.2 0.00 0.00 0.00 50 1012.7
20260906003320 94 67 3.5 6.1 0.00 0.00 0.00 50 1012.5
20260906002816 94 26 2.6 3.5 0.00 0.00 0.00 50 1012.5
20260906002315 94 90 4.3 7.0 0.00 0.00 0.00 49 1012.4
20260906001812 94 69 5.2 7.0 0.00 0.00 0.00 48 1012.6
20260906001307 94 114 2.6 5.2 0.00 0.00 0.00 49 1012.5
20260906000807 94 54 5.2 7.0 0.00 0.00 0.00 48 1012.3
20260906000303 94 57 9.6 12.2 0.00 0.00 0.00 48 1012.7
20260905235756 95 98 5.2 9.6 0.00 0.00 0.00 47 1012.4
20260905235256 95 73 5.2 7.8 0.00 0.00 0.00 46 1012.5
20260905234752 95 88 6.1 11.3 0.00 0.00 0.00 46 1012.3
20260905234246 95 71 3.5 6.1 0.00 0.00 0.00 46 1012.4
20260905233742 96 103 8.7 9.6 0.00 0.00 0.00 44 1012.1
20260905233242 96 98 5.2 6.1 0.00 0.00 0.00 42 1012.2
20260905232736 96 80 3.5 3.5 0.00 0.00 0.00 42 1012.1
20260905232232 97 97 2.6 5.2 0.00 0.00 0.00 42 1012.1
20260905231728 96 120 5.2 7.0 0.00 0.00 0.00 41 1012.2
20260905231223 96 101 6.1 6.1 0.00 0.00 0.00 42 1012.0
20260905230719 97 97 3.5 3.5 0.00 0.00 0.00 40 1012.1
20260905230217 97 80 0.9 1.7 0.00 0.00 0.00 41 1012.3
20260905225716 96 54 1.7 2.6 0.00 0.00 0.00 43 1012.2
20260905225212 96 89 4.3 5.2 0.00 0.00 0.00 43 1012.3
20260905224711 96 95 1.7 1.7 0.00 0.00 0.00 43 1012.2
20260905224206 98 129 2.6 3.5 0.00 0.00 0.00 41 1012.1
20260905223703 98 344 0.0 0.0 0.00 0.00 0.00 42 1012.2
20260905223159 97 285 1.7 1.7 0.00 0.00 0.00 41 1012.2
20260905222654 97 110 0.0 0.0 0.00 0.00 0.00 41 1012.2
20260905222148 97 56 3.5 5.2 0.00 0.00 0.00 40 1012.4
20260905221644 98 92 0.9 0.9 0.00 0.00 0.00 40 1012.4
20260905221141 97 197 3.5 6.1 0.00 0.00 0.00 41 1012.2
20260905220636 98 96 6.1 7.0 0.00 0.00 0.00 40 1012.5
20260905220132 98 258 0.0 0.0 0.00 0.00 0.00 39 1012.4
20260905215631 98 130 2.6 3.5 0.00 0.00 0.00 40 1012.4
20260905215127 97 131 0.0 0.0 0.00 0.00 0.00 41 1012.5
20260905214623 95 141 0.0 0.0 0.00 0.00 0.00 42 1012.4
20260905214118 95 163 0.0 0.0 0.00 0.00 0.00 41 1012.5
20260905213613 97 83 1.7 2.6 0.00 0.00 0.00 41 1012.4
20260905213108 96 93 3.5 6.1 0.00 0.00 0.00 41 1012.4
20260905212603 95 117 5.2 6.1 0.00 0.00 0.00 42 1012.4
20260905212103 95 59 1.7 3.5 0.00 0.00 0.00 42 1012.6
20260905211558 95 31 1.7 2.6 0.00 0.00 0.00 43 1012.8
20260905211053 97 134 2.6 3.5 0.00 0.00 0.00 43 1012.7
20260905210549 98 111 0.0 0.0 0.00 0.00 0.00 41 1012.8
20260905210044 97 66 0.0 0.0 0.00 0.00 0.00 41 1013.0
20260905205543 98 215 0.0 0.0 0.00 0.00 0.00 40 1012.7
20260905205043 97 120 5.2 6.1 0.00 0.00 0.00 42 1013.0
20260905204538 98 152 3.5 5.2 0.00 0.00 0.00 41 1013.0
20260905204033 98 253 0.0 0.0 0.00 0.00 0.00 41 1013.2
20260905203533 97 33 0.0 0.9 0.00 0.00 0.00 41 1013.4
20260905203028 95 14 2.6 3.5 0.00 0.00 0.00 43 1013.4
20260905202523 95 32 0.0 0.0 0.00 0.00 0.00 45 1013.4
20260905202019 95 68 0.9 2.6 0.00 0.00 0.00 45 1013.6
20260905201514 96 111 3.5 6.1 0.00 0.00 0.00 42 1013.6
20260905201014 96 104 1.7 3.5 0.00 0.00 0.00 42 1013.7
20260905200509 95 69 0.9 2.6 0.00 0.00 0.00 44 1013.7
20260905200008 95 46 2.6 3.5 0.00 0.00 0.00 43 1013.9
20260905195502 95 104 2.6 2.6 0.00 0.00 0.00 44 1014.0
20260905194958 95 221 0.0 0.0 0.00 0.00 0.00 44 1013.9
20260905194452 94 219 2.6 3.5 0.00 0.00 0.00 45 1014.3
20260905193946 95 174 4.3 5.2 0.00 0.00 0.00 45 1014.2
20260905193441 95 111 3.5 6.1 0.00 0.00 0.00 44 1014.3
20260905192936 95 165 3.5 5.2 0.00 0.00 0.00 45 1014.3
20260905192431 94 190 7.8 8.7 0.00 0.00 0.00 46 1014.5
20260905191926 95 135 7.0 8.7 0.00 0.00 0.00 46 1014.5
20260905191425 95 27 0.9 0.9 0.00 0.00 0.00 46 1014.6
20260905190920 95 82 3.5 5.2 0.00 0.00 0.00 46 1014.6
20260905190418 94 229 1.7 1.7 0.00 0.00 0.00 46 1014.9